Regional Weather Roundup
Issued by NWS

Home | Current Version | Previous Version | Graphics & Text | Print | Product List | Glossary On
Versions: 1 2 3 4 5 6 7 8 9 10 11 12 13 14 15 16 17 18 19 20 21 22 23 24 25 26 27 28 29 30 31 32 33 34 35 36 37 38 39 40 41 42 43 44 45 46 47 48 49 50
000
ASUS43 KMKX 172300
RWRWI

WISCONSIN REGIONAL WEATHER ROUNDUP
NATIONAL WEATHER SERVICE MILWAUKEE/SULLIVAN WI
500 PM CST WED JAN 17 2018

NOTE: "FAIR" INDICATES FEW OR NO CLOUDS BELOW 12,000 FEET WITH NO
SIGNIFICANT WEATHER AND/OR OBSTRUCTIONS TO VISIBILITY.

WIZ001-002-006>008-014>016-023>028-180000-
NORTHWEST WISCONSIN

CITY           SKY/WX    TMP DP  RH WIND       PRES   REMARKS
SUPERIOR ARPT  FAIR      26   8  47 SW14      29.94R WCI  14
ASHLAND        FAIR      27   6  41 SW18G26   29.90S WCI  14
HAYWARD        FAIR      23   5  46 SW12      29.97F WCI  12
SIREN          FAIR      24   8  51 SW14      30.02F WCI  11
CUMBERLAND     FAIR      19   9  63 SW17      30.00F WCI   4
RICE LAKE      FAIR      23   8  52 S3        30.05F
CHETEK         FAIR      24   8  50 SW13      30.05F WCI  12
LADYSMITH      FAIR      22   8  53 SW12      30.03F WCI  11
EAU CLAIRE     NOT AVBL
MENOMONIE      FAIR      24  10  53 S10       30.09F WCI  14
NEW RICHMOND   FAIR      22   9  57 SW14      30.06F WCI   9
OSCEOLA        FAIR      26  10  50 SW12      30.09F WCI  16
$$

WIZ003>005-009-010-017-018-180000-
NORTH CENTRAL WISCONSIN

CITY           SKY/WX    TMP DP  RH WIND       PRES   REMARKS
MANITOWISH WTR FAIR      22   4  46 SW9G18    29.90F WCI  11
ARBOR VITAE    FAIR      24   9  51 SW9       29.92F WCI  15
WOODRUFF       FAIR      24   9  51 SW9       29.92F WCI  15
RHINELANDER    FAIR      21   7  54 SW17G26   29.93F WCI   7
EAGLE RIVER    FAIR      22   8  56 SW13G20   29.89F WCI  10
LAND O LAKES   FAIR      25   6  45 SW12G22   29.88F WCI  14
PHILLIPS       FAIR      21   6  51 SW14G20   29.95F WCI   8
TOMAHAWK       FAIR      20   7  55 SW7       29.99F WCI  11
MEDFORD        FAIR      22   6  51 SW10G17   30.04F WCI  11
MERRILL        FAIR      20   6  54 W12       30.04F WCI   8
$$

WIZ029-030-035-036-043>047-180000-
CENTRAL WISCONSIN

CITY           SKY/WX    TMP DP  RH WIND       PRES   REMARKS
WAUSAU         FAIR      22   5  48 SW10      30.04F WCI  11
MOSINEE        PTCLDY    21   9  58 SW12      30.07S WCI   9
MARSHFIELD     FAIR      22   7  52 SW12      30.06S WCI  10
STEVENS POINT  FAIR      22   6  49 SW14      30.09S WCI   9
WAUPACA        FAIR      26   7  44 SW17      30.11F WCI  13
WAUTOMA        FAIR      22   7  52 SW13      30.13F WCI  10
WISC RAPIDS    FAIR      22   5  48 SW13      30.11F WCI  10
CAMP DOUGLAS   CLEAR     23   7  50 SW13G20   30.14F WCI  11
$$

WIZ011>013-019>022-031-037>040-048>050-180000-
NORTHEAST WISCONSIN

CITY           SKY/WX    TMP DP  RH WIND       PRES   REMARKS
ANTIGO         FAIR      19   6  55 W16G26    30.01S WCI   5
SHAWANO        FAIR      25   7  47 SW13G18   30.05F WCI  13
OCONTO         FAIR      23   6  49 SW16      30.04F WCI  10
STURGEON BAY   FAIR      22   9  57 SW17G24   30.03F WCI   8
GREEN BAY      FAIR      22   8  55 SW14      30.07F WCI   9
MANITOWOC      FAIR      22   9  57 SW21G28   30.10F WCI   6
APPLETON       NOT AVBL
CLINTONVILLE   FAIR      25   5  42 W12       30.08F WCI  14
OSHKOSH        FAIR      20   8  60 SW13G23   30.12F WCI   7
$$

WIZ032>034-041-042-053>061-180000-
SOUTHWEST WISCONSIN

CITY           SKY/WX    TMP DP  RH WIND       PRES   REMARKS
LA CROSSE      FAIR      24  10  55 S18       30.19F WCI  10
SPARTA         FAIR      24   9  52 SW6       30.18F WCI  17
VIROQUA        FAIR      20  11  67 SW17G23   30.18F WCI   6
BOSCOBEL       FAIR      22   8  55 SW12G20   30.27F WCI  10
PRAIRIE DU CHI FAIR      22   7  54 S9        30.31S WCI  11
PLATTEVILLE    FAIR      20  10  65 SW16      30.30S WCI   6
$$

WIZ056-057-062-063-064-067-068-180000-
SOUTH CENTRAL WISCONSIN

CITY           SKY/WX    TMP DP  RH WIND       PRES   REMARKS
REEDSBURG      FAIR      22   6  51 SW14G21   30.20F WCI   9
BARABOO/DELLS  FAIR      22   6  50 SW16      30.18F WCI   8
LONE ROCK      FAIR      21   8  57 SW12G21   30.26F WCI   9
MINERAL POINT  FAIR      23  10  58 SW16G23   30.26S WCI  10
MADISON        FAIR      19   7  59 SW8G20    30.24F WCI   9
MIDDLETON      FAIR      22   9  58 SW13G18   30.25S WCI  10
WATERTOWN      FAIR      17  10  71 SW12G18   30.24F WCI   5
MONROE         FAIR      19  10  68 SW18G24   30.27F WCI   4
JANESVILLE     CLEAR     18  10  73 SW15G22   30.30F WCI   3
$$

WIZ051-052-058>065-066-070>072-180000-
SOUTHEAST WISCONSIN

CITY           SKY/WX    TMP DP  RH WIND       PRES   REMARKS
MILWAUKEE      FAIR      20   8  60 W17G37    30.23F WCI   5
WAUKESHA       CLEAR     16   7  67 W14G23    30.25F WCI   1
MILWAUKEE/TIMM CLEAR     18   5  57 SW18G26   30.23F WCI   2
RACINE         FAIR      18   8  65 SW17G28   30.27F WCI   3
BURLINGTON     FAIR      18   7  62 SW18G26   30.29F WCI   2
KENOSHA        FAIR      17   8  67 SW22G32   30.28F WCI   0
FOND DU LAC    FAIR      20   6  55 SW15G26   30.14F WCI   6
SHEBOYGAN      FAIR      20   9  62 SW17      30.13F WCI   5
WEST BEND      FAIR      19   9  63 SW18G29   30.17F WCI   4
JUNEAU         FAIR      19   8  62 SW20G26   30.21F WCI   3
$$

LSZ147-162-180000-
LAKE SUPERIOR

STATION/POSITION TIME  TEMP    WIND        PRES    WAVE
                       AIR SEA DIR/SP/G            HT/PER
                 (UTC) (F)     (DEG/KT/KT) (MB)    (FT/S)
DEVILS ISLAND    2200   29     240/ 31/ 35 1011.3F
SAXON HARBOR     2240   30     200/ 12/ 26 1011.5S
$$

LMZ867-665-643>646-180000-
LAKE MICHIGAN

STATION/POSITION TIME  TEMP    WIND        PRES    WAVE
                       AIR SEA DIR/SP/G            HT/PER
                 (UTC) (F)     (DEG/KT/KT) (MB)    (FT/S)
NORTHPORT PIER   2242   21     220/  7/ 22 1015.6F
KEWAUNEE LAKESHO 2230   22     230/ 13/ 19 1018.1F
SHEBOYGAN LAKESH 2200   23     230/ 15/ 19 1022.6F
PORT WASHINGTON  2240   21     250/ 10/ 24 1023.0F
MILWAUKEE LAKESH 2240   21     250/ 18/ 23   N/A
KENOSHA   LAKESH 2200   20     230/ 14/ 24 1026.1
$$

TC  - TEMPERATURE IN CELSIUS
VSB - VISIBILITY IN STATUTE MILES
WCI - WIND CHILL INDEX
HX  - HEAT INDEX




USA.gov is the U.S. government's official web portal to all federal, state and local government web resources and services.